Flag for Norway

Past Weather in 68°24'53.9"N, 17°25'10.7"E, Norway — Yesterday and Last 2 Weeks

Currently: 63 °F. Sunny. (Weather station: Evenes, Norway). See more current weather

Past Weather in 68°24'53.9"N, 17°25'10.7"E — Graph

°F

68°24'53.9"N, 17°25'10.7"E Temperature Yesterday

Maximum temperature yesterday: 77 °F (at 2:50 pm)
Minimum temperature yesterday: 55 °F (at 11:20 pm)
Average temperature yesterday: 64 °F

High & Low Weather Summary for the Past Weeks

 TemperatureHumidityPressure
High77 °F (May 28, 2:50 pm)100% (May 15, 5:50 am)30.42 "Hg (May 15, 5:50 am)
Low32 °F (May 20, 2:50 am)22% (May 26, 4:20 pm)29.62 "Hg (May 19, 7:20 am)
Average51 °F68%30.05 "Hg
* Reported May 14 9:20 pm — May 29 9:20 pm, 68°24'53.9"N, 17°25'10.7"E. Weather by CustomWeather, © 2024

Note: Actual official high and low records may vary slightly from our data, if they occured in-between our weather recording intervals... More about our weather records

68°24'53.9"N, 17°25'10.7"E Weather History for the Previous 24 Hours

Scroll right to see more
 ConditionsComfort  
Time TempWeatherWind HumidityBarometerVisibility
9:20 pm
Wed, May 29
64 °FSunny.9 mph64%29.83 "Hg10 mi
8:50 pm66 °FPassing clouds.9 mph60%29.83 "HgN/A
8:20 pm68 °FPassing clouds.10 mph56%29.83 "HgN/A
7:50 pm68 °FPassing clouds.10 mph56%29.83 "HgN/A
6:50 pm72 °FSunny.12 mph53%29.83 "Hg10 mi
6:20 pm72 °FSunny.12 mph53%29.83 "Hg10 mi
5:50 pm72 °FSunny.10 mph53%29.86 "Hg10 mi
5:20 pm72 °FSunny.10 mph57%29.86 "Hg10 mi
4:50 pm72 °FPassing clouds.10 mph57%29.86 "HgN/A
4:20 pm72 °FSunny.12 mph57%29.86 "Hg10 mi
3:20 pm70 °FSunny.10 mph57%29.89 "Hg10 mi
2:50 pm70 °FPassing clouds.10 mph57%29.89 "HgN/A
2:20 pm70 °FSunny.9 mph57%29.89 "Hg10 mi
1:50 pm68 °FSunny.12 mph60%29.89 "Hg10 mi
12:50 pm66 °FPassing clouds.9 mph64%29.92 "HgN/A
12:20 pm68 °FPassing clouds.10 mph64%29.92 "HgN/A
11:50 am66 °FPassing clouds.9 mph64%29.92 "HgN/A
11:20 am66 °FPassing clouds.8 mph64%29.92 "HgN/A
9:50 am63 °FPassing clouds.3 mph68%29.95 "HgN/A
9:20 am63 °FPassing clouds.3 mph73%29.95 "HgN/A
8:50 am61 °FPassing clouds.2 mph77%29.95 "HgN/A
8:20 am59 °FPassing clouds.5 mph82%29.95 "HgN/A
7:20 am57 °FScattered clouds.2 mph82%29.98 "HgN/A
6:50 am55 °FPartly sunny.3 mph88%29.98 "HgN/A
6:20 am55 °FPartly sunny.2 mph88%29.98 "HgN/A
5:50 am54 °FPartly sunny.No wind94%29.98 "HgN/A
4:50 am54 °FBroken clouds.3 mph94%30.01 "HgN/A
3:50 am54 °FPartly sunny.2 mph88%30.01 "HgN/A
3:20 am54 °FPartly sunny.2 mph88%30.01 "HgN/A
2:50 am54 °FPartly sunny.6 mph94%30.01 "HgN/A
2:20 am54 °FLow clouds.5 mph94%30.01 "HgN/A
1:50 am54 °FPartly sunny.7 mph88%30.01 "HgN/A
1:20 am54 °FBroken clouds.9 mph94%30.01 "HgN/A
12:50 am54 °FScattered showers. Broken clouds.9 mph94%30.01 "HgN/A
12:20 am55 °FSprinkles. Broken clouds.10 mph88%30.01 "HgN/A
11:50 pm
Tue, May 28
55 °FPartly sunny.10 mph88%29.98 "HgN/A
11:20 pm55 °FSprinkles. Broken clouds.10 mph88%29.98 "HgN/A
Weather by CustomWeather, © 2024

See weather overview